FENGYUN 1C DEB, 33637

Orbit data source: Space-Track

FENGYUN 1C DEB, 33637 is space debris in SSO originally from a launch on Mon, 10 May 1999 UTC launched from the Taiyaun Space Center, China (TSC). Fengyun 1C debris stems from the Chinese weather satellite Fengyun-1C, which was intentionally destroyed by a Chinese anti-satellite missile in 2007. This event dramatically increased the amount of space debris, with thousands of trackable fragments posing hazards to satellites and human spaceflight. The Fengyun 1C debris cloud has become a focal point in discussions about space sustainability and the need for international regulations to prevent the creation of new debris.

Loading next visibility...
Identifier
33637, 1999-025DDW
Orbit
SSO
Country
Flag of CNCN / PRC
Related business
Manufacturer
Unknown
Mission
Spacecraft
Bus & Motor
Unknown
Mass
Unknown
Launch date (UTC)
1999-05-10 (27 years ago)
Launch vehicle
Unknown
Launch site
Taiyaun Space Center, China (TSC)
Object type
Payload
Rocket body
Debris
Shape & HBR
Unknown shape, 0.1 m
Radar Cross Section
Small (<0.1 m²)

Expand to show TLE details & history
Last TLE update: 4 weeks ago

TLE from 4 weeks ago
0 FENGYUN 1C DEB
1 33637U 99025DDW 26139.35861483  .00001681  00000-0  55037-3 0  9995
2 33637  98.4742 187.2295 0081195  42.6406 318.1046 14.37871183671020
Epoch: 2026-05-19T08:36Z
TLE epoch observation values (Epoch: 2026-05-19T08:36:24.321Z)
Latitude
0.00002°
Longitude
-178.9055°
Altitude
725.515 km
Speed
7.515 km/s
True Right ascension
12h 28m 55s
True Declination
0° 00' 00"
Sunlit
Object was in full shadow at epoch
Visualization orbit readout
Latitude
Unknown
Longitude
Unknown
Altitude
Unknown
Speed
Unknown
Apparent Right ascension
Unknown
Apparent Declination
Unknown
Sunlit
N/A
Visualization observer readout
Local Sidereal Time
01:11:34
Azimuth
Unknown
Elevation
Unknown
Doppler factor
Unknown
Orbital elements
Apogee altitude
820.644 km
Perigee altitude
704.684 km
Semi-major axis
7,140.801 km
Eccentricity
0.00812
Inclination
98.4742°
RAAN
187.2295°
Arg. of periapsis
42.6406°
True anomaly
317.47857°
Mean anomaly
318.1046°
Eccentric anomaly
317.79206°
Mean motion
3.59685 °/min
Orbital period
100.09 mins
BSTAR
0.00055037
Loading maneuver chart data...
Computing Atmospheric mass density...

Documentation

Showing up to 5 results
|